If you wish to contribute or participate in the discussions about articles you are invited to join SKYbrary as a registered user

 Actions

Poitiers-Biard Airport

From SKYbrary Wiki

LFBI
Airport
ICAO: LFBI – IATA: PIS
Summary
Name Poitiers-Biard Airport
Region Europe
Territory France FR.gif
Location , Poitou-Charentes
Serving Poitiers
Elevation 128.93 m
423 ft
423 ft128.93 m
Type medium airport
Coordinates 46° 35' 15.88" N, 0° 18' 24.00" E
Runways
Designator Length Width Surface ROPS
3/21 2350 m7,709.974 ft
45 m147.638 ft
ASP yes/yes


METAR
Observation LFBI 230400Z AUTO 05007KT 9999 OVC007 12/11 Q1011 TEMPO 3000 -RADZ OVC004
Station Poitiers
Date/Time 23 October 2019 04:00:00
Wind direction 50°
Wind speed 07 kts
Lowest cloud amount overcast
Temperature 12°C
Dew point 11°C
Humidity 93%
QNH 1011 hPa
Weather condition n/a